User: anonymous   Login
Location: Gro�sch�nbrunn
(49.5760°N, 11.8868°E)
Time: 10:41:24
(UTC+00:00)
Language:

Cosmos 1634 Rocket - Orbit

View from above orbital plane
View from above orbital plane
View from above satellite
View from above satellite

Ground track
Ground track

The orbit data is extracted from the following two-line orbital elements,

1 15598U 85022B   20336.54470350  .00000052  00000-0  37097-4 0  9994
2 15598  82.9388 248.0231 0022032 172.4490   0.7980 13.76577464794288
Epoch (UTC): 01 December 2020 13:04:22
Eccentricity: 0.0022032
inclination: 82.9388°
perigee height: 960 km
apogee height: 992 km
right ascension of ascending node: 248.0231°
argument of perigee: 172.4490°
revolutions per day: 13.76577464
mean anomaly at epoch: 0.7980°
orbit number at epoch: 79428

The dashed part of the orbit path shows where the satellite is in the earth's shadow,  

DLR